1998-067UE

Last updated on Thu Dec 15 2022 00:02:06 GMT+0000 (Coordinated Universal Time)

1 53767U 98067UE 22348.52110737 .00054176 00000+0 66850-3 0 9993 2 53767 51.6372 159.5440 0005457 232.9077 127.1418 15.59612950 15433

Satellite not in orbit